SCP
0 0 0 0 0 0 0 0 0 0 0 0 0 0 0 0 0 0 0 0 0 0 0 0 0 0 0 0 0 0 0 0 0 0 0 0 0 0 0 0 0 0 0 0
0 0 0 0 0 0 0 0 0 0 0 0 0 0 0 0 0 0 0 0 0 0 0 0 0 0 0 0 0 0 0 0 0 0 0 0 0 0 0 0 0 0 0 0
0 0 0 0 0 0 0 0 0 0 0 0 0 0 0 0 0 0 0 0 0 0 0 0 0 0 0 0 0 0 0 0 0 0 0 0 0 0 0 0 0 0 0 0
0 0 0 0 0 0 0 0 0 0 0 0 0 0 0 0 0 0 0 0 0 0 0 0 0 0 0 0 0 0 0 0 0 0 0 0 0 0 0 0 0 0 0 0
0 0 0 0 0 0 0 0 0 0 0 0 0 0 0 0 0 0 0 0 0 0 0 0 0 0 0 0 0 0 0 0 0 0 0 0 0 0 0 0 0 0 0 0
0 0 0 0 0 0 0 0 0 0 0 0 0 0 0 0 0 0 0 0 0 0 0 0 0 0 0 0 0 0 0 0 0 0 0 0 0 0 0 0 0 0 0 0
0 0 0 0 0 0 0 0 0 0 0 0 0 0 0 0 0 0 0 0 0 0 0 0 0 0 0 0 0 0 0 0 0 0 0 0 0 0 0 0 0 0 0 0
0 0 0 0 0 0 0 0 0 0 0 0 0 0 0 0 0 0 0 0 0 0 0 0 0 0 0 0 0 0 0 0 0 0 0 0 0 0 0 0 0 0 0 0
0 0 0 0 0 0 0 0 0 0 0 0 0 0 0 0 0 0 0 0 0 0 0 0 0 0 0 0 0 0 0 0 0 0 0 0 0 0 0 0 0 0 0 0
0 0 0 0 0 0 0 0 0 0 0 0 0 0 0 0 0 0 0 0 0 0 0 0 0 0 0 0 0 0 0 0 0 0 0 0 0 0 0 0 0 0 0 0
0 0 0 0 0 0 0 0 0 0 0 0 0 0 0 0 0 0 0 0 0 0 0 0 0 0 0 0 0 0 0 0 0 0 0 0 0 0 0 0 0 0 0 0
0 0 0 0 0 0 0 0 0 0 0 0 0 0 0 0 0 0 0 0 0 0 0 0 0 0 0 0 0 0 0 0 0 0 0 0 0 0 0 0 0 0 0 0
0 0 0 0 0 0 0 0 0 0 0 0 0 0 0 0 0 0 0 0 0 0 0 0 0 0 0 0 0 0 0 0 0 0 0 0 0 0 0 0 0 0 0 0
0 0 0 0 0 0 0 0 0 0 0 0 0 0 0 0 0 0 0 0 0 0 0 0 0 0 0 0 0 0 0 0 0 0 0 0 0 0 0 0 0 0 0 0
0 0 0 0 0 0 0 0 0 0 0 0 0 0 0 0 0 0 0 0 0 0 0 0 0 0 0 0 0 0 0 0 0 0 0 0 0 0 0 0 0 0 0 0
0 0 0 0 0 0 0 0 0 0 0 0 0 0 0 0 0 0 0 0 0 0 0 0 0 0 0 0 0 0 0 0 0 0 0 0 0 0 0 0 0 0 0 0
0 0 0 0 0 0 0 0 0 0 0 0 0 0 0 0 0 0 0 0 0 0 0 0 0 0 0 0 0 0 0 0 0 0 0 0 0 0 0 0 0 0 0 0
0 0 0 0 0 0 0 0 0 0 0 0 0 0 0 0 0 0 0 0 0 0 0 0 0 0 0 0 0 0 0 0 0 0 0 0 0 0 0 0 0 0 0 0
0 0 0 0 0 0 0 0 0 0 0 0 0 0 0 0 0 0 0 0 0 0 0 0 0 0 0 0 0 0 0 0 0 0 0 0 0 0 0 0 0 0 0 0
0 0 0 0 0 0 0 0 0 0 0 0 0 0 0 0 0 0 0 0 0 0 0 0 0 0 0 0 0 0 0 0 0 0 0 0 0 0 0 0 0 0 0 0
0 0 0 0 0 0 0 0 0 0 0 0 0 0 0 0 0 0 0 0 0 0 0 0 0 0 0 0 0 0 0 0 0 0 0 0 0 0 0 0 0 0 0 0
0 0 0 0 0 0 0 0 0 0 0 0 0 0 0 0 0 0 0 0 0 0 0 0 0 0 0 0 0 0 0 0 0 0 0 0 0 0 0 0 0 0 0 0
0 0 0 0 0 0 0 0 0 0 0 0 0 0 0 0 0 0 0 0 0 0 0 0 0 0 0 0 0 0 0 0 0 0 0 0 0 0 0 0 0 0 0 0
0 0 0 0 0 0 0 0 0 0 0 0 0 0 0 0 0 0 0 0 0 0 0 0 0 0 0 0 0 0 0 0 0 0 0 0 0 0 0 0 0 0 0 0
0 0 0 0 0 0 0 0 0 0 0 0 0 0 0 0 0 0 0 0 0 0 0 0 0 0 0 0 0 0 0 0 0 0 0 0 0 0 0 0 0 0 0 0
0 0 0 0 0 0 0 0 0 0 0 0 0 0 0 0 0 0 0 0 0 0 0 0 0 0 0 0 0 0 0 0 0 0 0 0 0 0 0 0 0 0 0 0
0 0 0 0 0 0 0 0 0 0 0 0 0 0 0 0 0 0 0 0 0 0 0 0 0 0 0 0 0 0 0 0 0 0 0 0 0 0 0 0 0 0 0 0
Wind_Speed
7 5 5 7 10 14 15 13 10 10 12 13 10 8 7 6 4 5 6 8 9 10 9 9 9 8 8 7 7 7 6 5 5 5 4 4 4 4 4 4 4 4 4 4
5 5 7 9 11 14 15 15 16 15 16 12 11 9 9 9 8 8 9 10 10 10 10 10 10 9 9 8 8 7 7 6 6 5 5 5 4 4 4 4 4 4 4 4
4 3 4 8 10 14 13 13 12 15 14 10 9 9 10 9 9 10 10 10 11 11 11 11 11 10 10 9 9 8 7 7 6 6 6 5 5 5 4 4 4 4 4 4
3 3 7 2 0 7 11 13 13 13 12 11 11 10 10 9 10 10 9 9 10 10 10 10 9 9 9 9 9 9 8 7 7 7 6 6 5 5 5 4 4 4 4 4
3 4 6 3 2 4 6 6 7 11 13 11 8 7 8 7 9 9 8 7 7 8 8 8 9 10 10 10 9 9 9 8 8 8 7 7 6 6 5 5 4 4 4 4
4 4 4 1 1 1 3 4 1 4 7 6 3 5 2 3 2 4 4 3 4 5 6 8 9 10 11 10 10 10 9 8 8 8 8 7 7 6 5 5 5 4 4 4
6 5 4 3 1 3 4 2 2 3 4 4 4 4 4 4 3 1 0 1 3 5 6 6 8 10 10 10 10 9 8 8 8 8 7 7 6 6 6 6 5 5 5 4
4 5 3 3 2 2 3 4 3 4 3 3 3 3 2 2 2 2 2 2 3 4 4 5 8 9 9 8 7 7 8 8 8 8 7 6 7 6 6 7 6 6 5 5
4 3 4 2 2 4 5 5 5 4 4 3 2 1 0 1 2 2 2 2 2 3 4 4 6 7 7 6 7 8 8 8 8 8 7 7 8 8 7 6 6 5 5 5
5 5 6 5 4 5 5 6 6 5 4 3 2 1 0 1 1 2 2 2 2 3 3 3 5 6 5 6 8 9 9 8 8 8 7 7 6 6 6 7 6 6 6 6
6 7 7 4 5 6 6 6 4 4 3 2 1 0 0 1 1 1 1 1 1 2 2 3 4 5 5 6 8 8 8 8 7 7 7 7 7 6 8 7 7 7 6 6
4 5 7 8 8 9 7 6 4 3 3 3 1 0 1 1 1 1 0 0 1 1 2 2 3 4 5 7 8 8 7 7 6 6 6 6 6 5 9 8 11 12 10 8
8 9 10 10 9 8 6 5 4 2 2 2 1 1 1 1 1 1 0 0 1 2 2 3 3 4 5 7 8 9 8 7 6 6 6 7 6 6 6 7 11 13 14 14
9 8 8 7 7 7 5 4 2 1 1 1 1 1 1 1 1 1 1 2 2 2 2 2 3 4 4 6 8 8 8 8 7 6 6 7 7 7 6 6 6 6 10 15
8 8 9 9 7 6 4 2 1 1 1 1 1 1 1 1 0 1 2 2 1 1 1 2 2 2 2 5 7 8 7 6 6 6 6 6 6 6 6 7 6 6 5 7
10 9 8 7 7 5 4 3 2 2 1 0 0 1 1 0 1 1 2 2 1 1 2 2 2 3 2 4 6 6 6 8 7 6 6 6 6 6 6 7 7 7 7 7
9 8 7 7 6 5 4 3 2 2 1 0 0 1 1 0 0 1 2 2 2 1 2 2 3 3 2 3 4 4 5 6 10 7 6 6 6 7 7 7 7 7 7 8
8 8 8 7 6 4 3 2 1 0 0 1 1 1 1 1 1 2 3 3 2 1 1 3 3 3 2 3 3 3 4 4 5 6 6 6 6 7 7 7 8 8 7 7
7 6 5 4 3 2 1 1 1 1 1 1 1 1 1 1 2 3 3 2 2 2 3 4 5 3 3 3 3 3 3 4 5 5 5 8 8 7 7 7 8 8 7 6
6 5 5 4 3 2 2 2 1 1 1 1 1 1 1 2 2 3 2 1 1 2 4 5 4 3 3 3 4 3 4 5 5 5 5 6 6 7 7 7 8 8 7 7
6 5 4 4 3 3 2 2 1 1 2 2 1 1 2 2 3 2 2 2 2 3 5 5 3 3 4 4 4 3 4 4 5 5 5 5 6 6 6 7 7 7 7 7
5 4 3 3 2 2 2 2 2 2 2 2 2 2 2 2 3 2 2 2 3 5 4 3 3 5 6 6 3 4 4 4 4 4 5 5 5 6 6 7 7 7 7 7
4 3 3 2 2 2 2 2 2 2 2 2 2 3 3 3 3 3 3 2 3 6 5 4 6 8 8 4 3 4 4 4 4 4 4 5 5 5 6 6 6 6 6 6
4 4 3 3 2 3 3 3 3 2 2 3 3 3 3 3 3 2 3 5 6 7 4 5 8 8 7 3 3 3 4 4 4 4 4 4 4 5 5 5 5 5 6 7
4 4 3 3 3 3 4 4 3 3 3 3 3 3 3 2 3 3 4 4 6 6 4 5 7 7 4 3 3 4 4 4 4 5 4 4 4 4 5 5 5 5 5 6
4 4 4 4 4 3 3 3 3 3 3 3 3 3 2 2 3 3 3 4 5 5 4 4 4 5 3 4 4 4 4 4 5 4 4 4 5 5 5 5 6 5 5 5
5 4 4 4 3 3 3 3 3 3 3 3 4 3 3 3 3 3 4 3 3 3 4 4 4 4 4 4 4 4 4 4 4 4 4 4 5 5 5 6 5 5 5 5
Wind_Direction
258 254 215 221 215 209 215 227 239 249 254 264 273 281 279 273 251 223 211 202 197 194 188 183 180 178 174 168 164 162 161 160 156 148 143 143 139 134 130 124 118 116 114 111
250 240 227 236 231 223 226 234 243 257 265 268 276 274 265 257 247 236 224 215 209 203 198 193 190 185 179 176 170 168 169 166 157 155 153 152 148 145 140 134 130 127 124 124
245 241 234 244 229 222 223 226 232 243 255 270 270 263 259 255 247 239 233 222 213 208 204 201 195 188 185 178 169 172 173 168 166 165 162 160 157 155 150 144 138 132 127 124
251 222 238 278 195 224 231 242 238 251 266 274 276 281 279 265 254 246 237 227 217 210 205 201 192 186 180 170 171 174 175 174 174 172 168 165 165 163 157 149 145 137 131 127
233 241 261 274 222 202 220 252 243 249 263 273 287 283 269 255 248 247 244 232 219 206 199 189 183 177 171 172 176 179 182 181 179 176 173 173 173 167 159 153 147 144 138 139
234 243 249 343 40 194 219 253 280 255 271 281 268 258 306 5 292 249 237 219 202 184 176 178 175 170 174 178 182 189 188 183 179 179 179 180 178 168 160 156 153 151 145 150
241 250 268 323 308 182 227 357 356 288 284 277 251 279 339 349 354 357 107 151 161 162 168 173 167 171 181 184 193 189 177 175 177 181 183 179 172 167 161 158 157 161 159 164
237 238 259 30 134 214 328 346 325 312 310 289 275 294 320 352 24 55 81 102 137 152 153 157 167 176 184 192 184 169 170 174 178 180 177 173 170 166 167 165 168 172 174 177
272 288 358 347 303 326 326 311 315 314 318 306 284 285 330 47 56 66 79 96 117 143 145 156 175 185 189 183 165 167 172 177 178 179 179 176 177 173 172 177 182 183 187 192
280 286 309 309 311 315 315 310 315 317 312 294 280 282 118 91 71 73 83 101 118 143 158 171 182 194 193 171 169 173 179 180 179 181 181 181 183 183 184 187 191 192 196 200
276 299 310 306 327 324 322 320 319 335 329 310 275 239 184 114 81 65 80 108 151 181 195 194 188 194 186 175 174 179 184 184 184 187 186 186 191 196 199 203 202 199 202 201
291 324 309 304 318 320 315 312 308 315 331 345 332 217 143 117 81 67 76 148 194 221 229 218 205 203 191 183 182 183 187 190 189 189 190 190 192 200 214 216 216 218 217 211
291 302 291 291 300 309 306 305 307 302 300 323 358 46 116 89 76 66 45 256 263 263 255 239 222 216 201 192 192 195 197 193 191 193 193 193 195 198 201 213 221 225 224 221
300 298 287 293 303 313 309 307 319 348 1 7 31 70 88 82 67 33 345 324 306 287 270 251 236 230 213 198 199 204 205 201 197 199 198 198 199 201 203 203 204 215 222 225
305 295 287 294 294 296 294 284 287 317 354 26 48 71 78 82 46 342 333 330 306 285 281 263 252 256 230 207 206 208 207 206 202 201 200 201 200 200 204 209 214 213 206 217
308 301 291 284 283 284 280 269 261 260 258 272 60 33 17 36 20 353 351 345 314 303 313 296 283 289 252 219 214 214 215 211 203 202 201 202 201 202 206 210 214 215 216 212
302 303 301 296 289 280 280 279 263 250 237 244 335 354 5 56 24 358 348 333 306 308 328 317 310 309 269 231 222 220 218 213 208 209 208 206 205 207 209 212 216 220 222 215
295 290 292 291 291 286 288 299 310 281 319 352 8 20 6 347 334 333 330 324 308 309 345 333 328 316 288 255 237 228 219 217 213 214 211 210 212 213 213 216 220 225 227 221
322 317 314 314 316 304 306 353 15 23 22 18 19 9 351 337 329 322 319 314 308 307 334 333 325 314 299 285 266 236 227 225 223 222 217 218 218 217 217 219 222 224 224 219
337 342 348 357 11 20 19 13 9 12 8 8 1 337 328 334 330 321 307 288 313 320 322 322 316 306 299 287 277 252 236 233 232 229 225 223 223 222 221 223 224 225 224 224
334 342 349 355 6 17 13 356 345 347 351 353 341 327 324 325 323 312 295 284 329 330 320 316 311 304 297 297 280 267 253 244 239 235 232 232 232 231 229 229 229 227 227 228
320 324 330 334 339 345 346 341 333 327 327 331 331 323 314 313 313 301 281 292 318 321 318 307 303 303 304 299 280 273 264 258 253 247 242 239 237 236 235 234 234 233 232 233
303 301 301 301 303 306 313 316 309 300 299 304 307 307 302 300 301 297 297 311 313 313 311 301 307 308 307 298 283 278 275 269 264 258 254 251 249 246 244 242 241 239 237 235
292 289 286 287 285 277 280 285 287 282 282 286 289 293 295 294 287 276 288 303 310 311 305 308 314 313 310 299 288 283 278 275 274 272 267 262 258 254 251 249 248 245 243 242
280 276 271 268 266 266 271 275 276 275 273 272 278 281 277 276 282 296 299 300 307 311 306 310 314 314 309 296 290 286 282 278 279 277 272 269 266 264 261 257 254 253 250 247
271 267 265 262 263 268 271 267 267 272 276 278 282 280 281 280 282 286 290 296 302 306 307 306 308 307 301 298 293 290 287 286 284 280 278 275 271 269 267 266 263 259 257 254
268 263 261 262 258 254 254 254 258 265 267 273 281 285 288 289 288 291 293 295 299 300 299 301 302 301 299 298 296 293 289 286 283 281 280 277 275 273 271 268 266 264 261 257